Regional Weather Roundup
Issued by NWS Newport/Morehead, NC

Current Version | Previous Version | Graphics & Text | Print | Product List | Glossary Off
Versions: 1 2 3 4 5 6 7 8 9 10 11 12 13 14 15 16 17 18 19 20 21 22 23 24 25 26 27 28 29 30 31 32 33 34 35 36 37 38 39 40 41 42 43 44 45 46 47 48 49 50

000
ASUS42 KMHX 021925
RWRMHX
WEATHER ROUNDUP FOR EASTERN NORTH CAROLINA
NATIONAL WEATHER SERVICE NEWPORT/MOREHEAD CITY NC
300 PM EDT WED SEP 02 2015

NOTE: "FAIR" INDICATES FEW OR NO CLOUDS BELOW 12,000 FEET
WITH NO SIGNIFICANT WEATHER AND/OR OBSTRUCTIONS TO VISIBILITY

NCZ015>017-031-032-045>047-102-103-022000-
NORTH COAST

CITY           SKY/WX    TMP DP  RH WIND       PRES   REMARKS
EDENTON        MOSUNNY   90  62  38 S6        29.99F
ELIZABETH CITY MOSUNNY   90  72  55 S10       30.00F
KITTY HAWK     PTCLDY    90  71  53 E5        29.99F
MANTEO         MOSUNNY   84  73  68 CALM      30.02F

$$

NCZ045>047-081-094-103-104-022000-
CENTRAL COAST

CITY           SKY/WX    TMP DP  RH WIND       PRES   REMARKS
FRISCO         PTSUNNY   85  72  65 SE3       30.02F
SWANQUARTER      N/A     90 N/A N/A W7        29.97S

$$

NCZ095-097-098-100-101-022000-
SOUTHERN COAST

CITY           SKY/WX    TMP DP  RH WIND       PRES   REMARKS
BEAUFORT       MOSUNNY   85  73  67 S6        30.01F
CEDAR ISLAND     N/A     86 N/A N/A E3        30.06S
JACKSONVILLE   MOSUNNY   90  68  48 W6        30.00F
PINEY ISLAND   MOCLDY   N/A N/A N/A E6        30.02F
WILMINGTON     PTSUNNY   93  66  40 CALM      30.01F


$$

NCZ011>013-027>030-043-044-078>080-089-090>093-098-022000-
COASTAL PLAIN

CITY           SKY/WX    TMP DP  RH WIND       PRES   REMARKS
AHOSKIE        MOSUNNY   90  70  52 S3        29.98F
CLINTON        MOSUNNY   92  70  49 NW3       30.01F
ELIZABETHTOWN  MOSUNNY   92  64  39 CALM      30.01F
GOLDSBORO      CLOUDY    92  70  47 VRB5      30.00F
GREENVILLE     SUNNY     91  68  46 SW5       30.02F
HAVELOCK       PTSUNNY   92  61  35 VRB3      30.02F
KENANSVILLE      N/A     89  67  49 CALM      30.02F
KINSTON        SUNNY     91  64  40 CALM      30.02F
NEW BERN       MOSUNNY   91  68  46 VRB3      30.02F
RICHLANDS      MOSUNNY   91  66  43 NW3       30.00F
ROCKY MOUNT    MOSUNNY   93  68  43 S7        30.01F
WASHINGTON     MOSUNNY   89  65  45 CALM      30.00F
WHITEVILLE     PTSUNNY   91  68  46 SW5       30.02F

$$

AMZ130-135-150-152-154-156-158-170-250-252-270-ANZ085-086-088-633-658-670-022000-
MARINE OBSERVATIONS

STATION/POSITION TIME  TEMP    WIND        PRES    WAVE   SWELL
                       AIR SEA DIR/SP/G            HT/PER HT/PER
                 (UTC) (F)     (DEG/KT/KT) (MB)    (FT/S) (FT/S)
CHESAPEAKE LIGHT 1900   81     160/  8/  9 1016.1
64 E VA BEACH    1850   81 83  220/  6/  6 1015.8    2/ 9   2/ 9
DUCK             1900   84 81  140/  9/  9 1015.2
2 E DUCK         1811      83                N/A     1/14
OREGON INLET     1900   82 81  100/  4/  6 1016.3
13E OREGON INLT  1900      83                N/A     1/14   2/14
HATTERAS CG      1900   83 82  340/  2/  3 1016.3
DIAMOND BUOY     1850   82 85  340/  2/  4 1016.9    2/ 9   2/ 9
CAPE LOOKOUT     1900   82     150/  5/  6 1016.2
BEAUFORT LAB     1900   84 80  180/  7/  8 1015.7
30 SE NEW RVR IN 1808   82 82  320/  2/  4 1017.5
30 SE NEW RVR IN 1825      84                N/A     2/ 7
27 SE WRIGHTSVLE 1900   79 83  240/  6/  8   N/A
5 SE WRIGHTSVLE  1808   83 83  200/ 10/ 12 1017.2
225 S CAPE HAT   1850   83 84  290/  8/ 10 1016.7    2/14   2/14
41 SE CHARLESTON 1850   82 85  140/  2/  4 1017.1    2/ 8   2/ 8

$$


USA.gov is the U.S. government's official web portal to all federal, state and local government web resources and services.